Location: Unspecified
(0.0000°N, 0.0000°E)
Time: 17:37:11
(UTC+02:00)

Iridium 15 - Visible Passes

Search period start: 27 June 2017 00:00
Search period end: 07 July 2017 00:00
Orbit: 761 x 764 km, 86.4° (Epoch: 26 June)

Date Brightness Start Highest point End Pass type
(mag) Time Alt. Az. Time Alt. Az. Time Alt. Az.
27 Jun 6.0 20:32:04 10° N 20:37:10 69° E 20:42:16 10° S visible
28 Jun 8.8 21:36:25 10° NW 21:39:31 16° W 21:42:39 10° SW visible
29 Jun 7.4 20:56:59 10° NNW 21:01:47 41° W 21:06:36 10° SSW visible
30 Jun 6.0 20:18:54 10° N 20:24:02 77° E 20:29:10 10° S visible
01 Jul 9.3 07:13:59 10° ESE 07:15:10 11° E 07:16:21 10° ENE visible
01 Jul 8.9 21:23:39 10° WNW 21:26:24 15° W 21:29:09 10° WSW visible
02 Jul 7.7 20:43:58 10° NNW 20:48:39 37° W 20:53:22 10° SSW visible
03 Jul 8.1 07:35:16 10° SSE 07:39:47 31° E 07:44:17 10° NNE visible
04 Jul 9.1 07:00:03 10° ESE 07:02:02 12° E 07:04:01 10° ENE visible
04 Jul 9.0 21:10:59 10° WNW 21:13:16 13° W 21:15:34 10° WSW visible
05 Jul 8.0 20:30:57 10° NNW 20:35:31 33° W 20:40:07 10° SSW visible
06 Jul 7.8 07:22:01 10° SSE 07:26:40 35° E 07:31:17 10° NNE visible
